Location: Ar Boullen
(48.4167°N, 5.0000°W)
Time: 19:34:53
(UTC+00:00)

Daily predictions for brighter satellites

Satellite Brightness Start Highest point End
(mag) Time Altitude Azimuth Time Altitude Azimuth Time Altitude Azimuth
Cosmos 2322 4.1 18:39:23 10° S 18:44:43 42° ESE 18:50:04 10° NE
CZ-2C R/B 3.7 18:39:32 10° S 18:45:08 68° WSW 18:50:30 10° NNW
CSL-04 Rocket 4.1 18:40:59 10° SE 18:46:10 44° ENE 18:51:20 10° N
Cosmos 1844 Rocket 2.9 18:40:45 10° NNW 18:46:20 76° WSW 18:51:53 10° SSE
Okean-O 2.6 18:44:48 10° SSE 18:49:11 65° ENE 18:53:36 10° N
Cosmos 1933 Rocket 3.5 18:46:13 10° S 18:50:32 66° E 18:54:55 10° NNE
Cosmos 1777 Rocket 4.1 18:45:46 10° NNW 18:50:59 59° ENE 18:56:07 10° SE
Cosmos 1354 Rocket 4.5 18:47:23 10° NNW 18:52:36 67° WSW 18:57:46 10° S
CSL-04 DEB 4.5 18:49:11 10° NNE 18:53:11 85° WNW 18:57:15 10° SSW
H-2A R/B 2.2 18:47:47 10° SSE 18:53:15 83° ENE 18:58:42 10° NNW
CSL-04 Debris 4.4 18:48:28 10° SE 18:53:44 53° ENE 18:59:04 10° N
SJ-6B 4.4 18:53:34 10° ESE 18:56:21 18° ENE 18:59:07 10° NNE
Ariane Rocket 4.3 18:56:19 10° ESE 19:00:08 22° ENE 19:03:57 10° N
USA 186 3.1 18:59:36 12° E 19:00:32 14° ENE 19:02:04 10° NNE
Cosmos 1500 3.3 18:57:46 10° SSW 19:01:30 78° W 19:05:16 10° N
Okean O Rocket 4.5 18:58:52 10° SSW 19:02:19 23° W 19:05:48 10° NW
OBJECT-B 2.7 19:02:09 12° E 19:03:14 14° ENE 19:04:56 10° NNE
Meteor 1-11 Rocket 4.1 19:00:37 10° SSE 19:05:50 40° E 19:11:00 10° NNE
SJ-11-01 4.3 19:01:25 10° SSE 19:06:07 88° WSW 19:10:52 10° NNW
Okean 1-7 3.0 19:02:35 10° N 19:06:58 79° E 19:11:17 10° SSE
Meteor 1-14 Rocket 4.4 19:01:47 10° SSW 19:07:19 80° WNW 19:12:53 10° N
PSLV R/B 3.8 19:04:00 10° NNE 19:08:05 71° ESE 19:12:07 10° S
Cosmos 2360 Rocket 2.6 19:03:17 10° SW 19:08:55 70° WNW 19:14:37 10° NNE
YAOGAN 1 2.8 19:05:46 10° S 19:10:05 75° WSW 19:14:26 10° NNW
FALCON 9 DEB 2.9 19:08:11 10° WNW 19:11:23 72° NNE 19:13:45 16° ESE
Cosmos 1943 Rocket 4.2 19:09:38 10° N 19:12:18 13° NNE 19:14:57 10° ENE
SAR-Lupe-4 3.6 19:08:55 10° NNE 19:12:28 56° ESE 19:16:00 10° S
Meteor 1-13 Rocket 4.3 19:08:16 10° N 19:14:12 67° ENE 19:19:59 10° SSE
Cosmos 1844 4.5 19:08:54 10° NW 19:14:33 57° WSW 19:20:06 10° S
SJ 16-02 1.9 19:11:20 10° N 19:15:28 38° ENE 19:19:18 12° SE
Cosmos 2341 Rocket 4.0 19:09:15 10° S 19:15:32 78° E 19:21:48 10° NNE
Cosmos 2333 4.2 19:09:55 10° SSW 19:15:33 78° ESE 19:21:18 10° NNE
Cosmos 1727 Rocket 4.3 19:10:16 10° N 19:16:09 42° ENE 19:22:00 10° SE
Cosmos 2237 Rocket 3.4 19:12:32 10° SE 19:16:34 20° E 19:20:34 10° NE
Cosmos 2278 Rocket 2.6 19:11:58 10° NNW 19:17:22 43° NE 19:22:11 13° ESE
Cosmos 1544 4.4 19:15:28 10° SE 19:18:07 19° E 19:20:47 10° NE
FALCON 9 DEB 2.8 19:16:04 10° WNW 19:19:16 87° NNE 19:21:22 19° ESE
SL-4 R/B 2.6 19:16:30 10° WNW 19:19:53 41° SSW 19:22:57 11° SE
COSMO-SKYMED 1 4.2 19:16:09 10° N 19:20:11 38° WNW 19:24:11 10° SW
Okean 3 3.5 19:15:58 10° N 19:20:11 55° ENE 19:24:23 10° SSE
Cosmos 1536 3.2 19:16:39 10° SSE 19:20:22 39° E 19:24:05 10° NNE
DMSP B5D1-3 4.5 19:16:18 10° NNE 19:21:29 79° ESE 19:26:39 10° S
Meteor 1-5 Rocket 4.2 19:17:36 10° S 19:23:01 88° W 19:28:41 10° NNE
Cosmos 2242 Rocket 4.3 19:20:34 10° NNW 19:24:59 58° W 19:29:20 10° S
SeaSat 1 2.9 19:20:38 10° NE 19:25:15 38° ESE 19:29:50 10° S
Abrixas rocket 2.6 19:23:13 10° W 19:25:33 36° SSW 19:26:46 21° SE
Cosmos 2218 Rocket 4.0 19:19:56 10° S 19:26:13 63° E 19:32:31 10° NNE
Cosmos 864 Rocket 4.5 19:24:06 10° S 19:30:10 63° E 19:36:20 10° NNE
MetOp-A 4.2 19:25:24 10° SE 19:30:36 55° ENE 19:35:50 10° N
Resurs 01 Rocket 3.2 19:31:41 17° ENE 19:32:12 17° ENE 19:35:05 10° NNE
SME Rocket 4.4 19:25:43 10° NNE 19:32:22 38° E 19:36:58 10° SSE
SAR-Lupe-1 4.1 19:29:18 10° NNE 19:32:55 80° WNW 19:36:30 10° SSW
Gbstr 26 Del rocket 3.4 19:30:14 10° WNW 19:34:46 72° NNE 19:38:19 22° E
Cosmos 1959 Rocket 4.4 19:29:18 10° S 19:35:21 71° E 19:41:29 10° NNE
Helios 1A Rocket 3.2 19:31:51 10° S 19:35:52 67° WSW 19:39:54 10° NNW
Cosmos 2333 Rocket 2.2 19:30:48 10° SSW 19:36:31 89° ESE 19:42:17 10° NNE
USA 234 4.1 19:33:09 17° E 19:36:51 27° SE 19:42:16 10° S
Lacrosse 4 Rocket 1.6 19:33:40 10° SW 19:38:05 82° WNW 19:42:37 10° NNE
GP-B 3.6 19:35:01 10° S 19:39:24 64° W 19:43:50 10° N
ERBS 4.4 19:38:11 10° NW 19:40:35 18° N 19:42:16 13° NE
CZ-4B R/B 4.4 19:40:32 10° NNW 19:42:35 17° WNW 19:44:39 10° WSW
USA 238 DEB 3.9 19:36:29 10° S 19:42:36 43° ESE 19:49:00 10° NE
USA 238 3.9 19:36:37 10° S 19:42:42 43° ESE 19:49:05 10° NE
Cosmos 2322 Rocket 4.2 19:38:15 10° WSW 19:43:01 28° NW 19:47:51 10° NNE
ARGOS 4.0 19:40:01 10° S 19:45:20 54° W 19:50:40 10° NNW
CZ-4 R/B 3.7 19:42:13 10° SSW 19:45:30 26° W 19:48:51 10° NW
Cosmos 1869 Rocket 3.7 19:41:31 10° SSW 19:45:54 79° WNW 19:50:21 10° N
Resurs 1-3 4.3 19:45:28 28° E 19:46:44 34° ENE 19:50:43 10° N
Cosmos 1689 Rocket 3.7 19:44:57 10° N 19:47:38 36° WNW 19:50:19 10° SW
FALCON 9 DEB 3.3 19:44:46 10° WNW 19:47:52 55° SSW 19:48:55 34° SSE
ERS-2 3.0 19:45:12 10° N 19:48:46 50° WNW 19:52:19 10° SSW
IRS-1A Rocket 4.3 19:46:16 15° SE 19:50:54 56° ENE 19:56:18 10° N
Cosmos 2219 Rocket 2.3 19:47:07 10° SSW 19:52:43 79° WNW 19:58:23 10° NNE
Cosmos 1378 3.2 19:49:40 10° NNW 19:53:25 80° W 19:57:07 10° S
CREW DRAGON DEMO-1 DEB 2.5 19:52:30 10° WSW 19:55:13 66° SSE 19:55:13 66° SSE
Cosmos 1238 Rocket 2.5 19:51:45 10° S 19:55:46 74° E 19:59:11 10° NNE
CZ-2C R/B 2.8 19:50:36 10° N 19:56:03 74° WNW 20:01:21 10° SSW
USA 305 2.9 19:53:04 10° WNW 19:57:21 71° NNE 19:58:46 40° E
FALCON 9 DEB 3.3 19:54:18 10° WNW 19:57:27 56° SSW 19:58:05 44° SSE
Cosmos 1980 3.9 19:55:34 10° S 20:00:54 45° ESE 20:06:15 10° NE
Cosmos 1733 Rocket 3.1 19:58:53 10° S 20:03:05 53° E 20:07:22 10° NNE
COSMOS 2428 2.9 20:02:08 10° SW 20:07:48 74° WNW 20:13:31 10° NNE
USA 307 2.8 20:06:52 10° WNW 20:11:10 80° NNE 20:12:00 56° ESE
NOSS 3-2 (A) 3.2 20:05:39 10° SSW 20:11:15 74° SE 20:17:46 10° NE
USA 306 2.8 20:08:06 10° WNW 20:12:24 83° NNE 20:13:13 58° ESE
ATLAS CENTAUR R/B 3.9 20:11:43 10° WNW 20:13:59 15° NNW 20:16:18 10° N
Cosmos 1743 2.6 20:11:50 10° S 20:15:42 82° E 20:19:37 10° N
Cosmos 2369 Rocket 3.8 20:13:29 10° N 20:17:23 19° NE 20:18:00 18° NE
Cosmos 1898 Rocket 3.4 20:12:48 10° NNW 20:18:02 66° ENE 20:19:30 46° SE
NOSS 0 Rocket 3.8 20:15:01 10° SSW 20:21:09 76° ESE 20:27:19 10° NNE
USA 308 2.7 20:17:41 10° WNW 20:21:59 89° NE 20:22:24 72° ESE
CENTAUR R/B 2.4 20:16:55 10° SSW 20:22:41 61° ESE 20:29:37 10° NE
SJ-6B 3.7 20:28:21 22° SSW 20:30:40 49° W 20:34:35 10° NNW
ASTEX 1 3.8 20:25:51 10° N 20:30:42 64° W 20:35:31 10° SSW
USA 186 3.8 20:31:10 20° W 20:31:11 20° W 20:33:14 10° NW
Cosmos 1674 Rocket 3.3 20:27:49 10° N 20:32:10 87° E 20:32:24 80° SSE
Landsat 7 4.5 20:34:35 40° NE 20:34:35 40° NE 20:38:17 10° N
OBJECT-B 2.0 20:35:13 41° W 20:35:13 41° W 20:38:14 10° NNW
ARIANE 5 R/B 4.3 20:39:17 22° NNE 20:39:17 22° NNE 20:41:23 10° N
Cosmos 990 Rocket 4.1 20:33:04 10° NNW 20:38:16 74° WSW 20:39:46 46° S
Ariane Rocket 3.3 20:35:45 25° S 20:38:40 64° WSW 20:43:45 10° NNW
ATLAS 5 CENTAUR R/B 4.2 20:35:50 10° WNW 20:38:58 15° NNW 20:40:39 11° N
Okean 2 4.4 20:38:20 10° N 20:40:55 36° N 20:40:55 36° N
Cosmos 1763 Rocket 3.3 20:37:34 10° SSW 20:42:52 76° ESE 20:48:12 10° NNE
Cosmos 2297 3.9 20:38:54 10° NNW 20:44:31 53° NE 20:44:36 53° ENE
MetOp-B 4.2 20:45:40 57° NE 20:45:40 57° NE 20:50:40 10° N
Cosmos 1378 Rocket 3.6 20:42:09 10° NNW 20:46:26 78° WNW 20:46:26 78° WNW
NOSS 3-2 (C) 3.2 20:47:24 10° SW 20:53:03 83° SE 20:55:56 35° NE
SJ 16-02 3.4 20:50:14 10° NW 20:53:52 26° W 20:56:21 16° SW
Cosmos 468 Rocket 4.0 20:49:24 10° SSW 20:54:42 84° WNW 21:00:02 10° NNE
Cosmos 1943 Rocket 2.7 20:52:05 10° NNW 20:56:57 45° NE 20:56:57 45° NE
Cosmos 858 Rocket 4.4 20:53:54 10° NNW 20:59:01 82° W 20:59:01 82° W
Cosmos 2237 Rocket 2.3 20:54:18 10° SW 21:00:00 74° WNW 21:05:44 10° NNE
Cosmos 1535 Rocket 4.4 21:00:59 72° ESE 21:01:19 74° E 21:07:41 10° NNE
Cosmos 1821 Rocket 4.3 20:55:13 10° SSW 21:01:22 63° WNW 21:07:29 10° N
Cosmos 2278 Rocket 3.5 20:56:15 10° NW 21:01:24 36° WSW 21:04:05 23° SSW
SeaSat 1 3.8 20:58:11 10° NNE 21:02:45 39° NW 21:07:18 10° WSW
Meteor 1-21 4.2 20:59:21 10° NNW 21:05:06 83° W 21:05:27 78° SSW
SPOT 3 Rocket 3.6 21:05:03 72° WSW 21:05:12 73° WSW 21:10:27 10° NNW
Resurs 01 Rocket 2.5 21:09:15 48° NW 21:09:15 48° NW 21:12:38 10° NNW
USA 245 4.4 21:12:27 70° NNE 21:12:27 70° NNE 21:18:17 10° N
SPOT 1/Viking Rocket 4.2 21:14:33 47° N 21:14:33 47° N 21:18:16 10° N
Cosmos 1934 Rocket 3.9 21:14:32 77° SW 21:14:59 84° W 21:21:12 10° N
Lacrosse 4 Rocket 4.3 21:14:34 10° WNW 21:17:30 17° NW 21:20:30 10° N
Cosmos 1937 Rocket 4.1 21:15:23 10° NNW 21:20:01 52° W 21:20:01 52° W
USA 234 3.1 21:20:31 83° SSE 21:20:31 83° SSE 21:27:02 10° SW
Gbstr 26 Del rocket 4.4 21:16:54 10° WNW 21:20:51 44° WSW 21:20:51 44° WSW
Cosmos 2123 Rocket 4.3 21:18:47 10° NNW 21:24:56 63° W 21:25:45 58° SW
USA 238 DEB 4.3 21:26:59 10° WSW 21:33:27 53° NW 21:40:17 10° NE
USA 238 4.3 21:27:05 10° WSW 21:33:33 53° NW 21:40:23 10° NE
Terra 4.0 21:39:46 18° N 21:39:46 18° N 21:41:05 10° N
Cosmos 2369 Rocket 3.6 21:56:43 10° NNW 21:59:47 34° NNW 21:59:47 34° NNW
CENTAUR R/B 3.7 22:07:50 10° WSW 22:13:46 42° NNW 22:20:49 10° NE
USA 281 4.4 22:40:59 37° NNW 22:40:59 37° NNW 22:44:47 10° NNW
Cosmos 1943 Rocket 4.3 22:36:10 10° NW 22:38:29 22° WNW 22:38:29 22° WNW
